This is the latest recevied weather packets stored in our database for station/object KK6MIG-13. If no packets are shown the sender has not sent any weather packets the latest 1 day(s).
| Time | Temp. | Humidity | Pressure | Rain* | Wind** | Luminosity | Snow |
|---|---|---|---|---|---|---|---|
| 1778032896 | 14.44° C | 1% | 1014.7 hPa | 0 mm | 4.47 m/s, 200° | 186 W/m² | - |
| 1778032836 | 14.44° C | 1% | 1014.7 hPa | 0 mm | 4.47 m/s, 240° | 146 W/m² | - |
| 1778032784 | 14.44° C | 1% | 1014.7 hPa | 0 mm | 4.47 m/s, 227° | 156 W/m² | - |
| 1778032780 | 14.44° C | 1% | 1014.7 hPa | 0 mm | 4.47 m/s, 261° | 125 W/m² | - |
| 1778032656 | 14.44° C | 1% | 1014.7 hPa | 0 mm | 4.47 m/s, 223° | 186 W/m² | - |
| 1778032596 | 14.44° C | 1% | 1014.7 hPa | 0 mm | 4.47 m/s, 247° | 158 W/m² | - |
| 1778032541 | 14.44° C | 1% | 1014.7 hPa | 0 mm | 4.47 m/s, 224° | 188 W/m² | - |
| 1778032536 | 14.44° C | 1% | 1014.7 hPa | 0 mm | 4.47 m/s, 237° | 91 W/m² | - |
| 1778032421 | 14.44° C | 1% | 1014.7 hPa | 0 mm | 4.47 m/s, 238° | 183 W/m² | - |
| 1778032416 | 14.44° C | 1% | 1014.7 hPa | 0 mm | 4.47 m/s, 240° | 105 W/m² | - |
| 1778032292 | 14.44° C | 1% | 1014.7 hPa | 0 mm | 4.47 m/s, 245° | 153 W/m² | - |
| 1778032232 | 14.44° C | 1% | 1014.8 hPa | 0 mm | 4.47 m/s, 246° | 90 W/m² | - |
| 1778032169 | 14.44° C | 1% | 1014.8 hPa | 0 mm | 4.47 m/s, 225° | 93 W/m² | - |
| 1778032110 | 14.44° C | 1% | 1014.8 hPa | 0 mm | 4.02 m/s, 226° | 116 W/m² | - |
| 1778032050 | 14.44° C | 1% | 1014.8 hPa | 0 mm | 4.47 m/s, 279° | 155 W/m² | - |
| 1778031990 | 14.44° C | 1% | 1014.7 hPa | 0 mm | 4.47 m/s, 270° | 81 W/m² | - |
| 1778031930 | 14.44° C | 1% | 1014.8 hPa | 0 mm | 4.47 m/s, 236° | 81 W/m² | - |
| 1778031870 | 14.44° C | 1% | 1014.7 hPa | 0 mm | 4.47 m/s, 251° | 239 W/m² | - |
| 1778031810 | 14.44° C | 1% | 1014.7 hPa | 0 mm | 4.47 m/s, 236° | 239 W/m² | - |
| 1778031746 | 15° C | 1% | 1014.8 hPa | 0 mm | 4.47 m/s, 248° | 239 W/m² | - |
| 1778031686 | 15° C | 1% | 1014.8 hPa | 0 mm | 4.47 m/s, 219° | 239 W/m² | - |
| 1778031626 | 15° C | 1% | 1014.8 hPa | 0 mm | 4.47 m/s, 212° | 239 W/m² | - |
| 1778031566 | 15° C | 1% | 1014.7 hPa | 0 mm | 4.47 m/s, 222° | 158 W/m² | - |
| 1778031506 | 14.44° C | 1% | 1014.7 hPa | 0 mm | 4.47 m/s, 238° | 158 W/m² | - |
| 1778031446 | 14.44° C | 1% | 1014.8 hPa | 0 mm | 4.47 m/s, 221° | 258 W/m² | - |
* Rain latest hour (hover to see other rain measurements)
** Current wind speed in m/s (hover to see current wind gust speed)